#timestamp,LO_Frequency,Hit,StdDev 
1568372415.9,286046996.8,N
1568372435.7,286046996.7,N
1568372455.5,286046998.8,N
1568372475.4,286046998.7,N
1568372495.2,286047000.8,N
1568372515.1,286047002.2,N
1568372516.0,286047002.2,N
1568372535.8,286047002.7,N
1568372555.6,286047000.1,N
1568372575.5,286047001.6,N
1568372595.3,286047001.9,N
1568372615.1,286047001.4,N
1568372635.9,286047005.7,N
1568372655.7,286047003.3,N
1568372675.6,286047003.8,N
1568372695.4,286047006.8,N
1568372715.2,286047002.6,N
1568372735.1,286047002.2,N
1568372736.0,286047002.2,N
1568372755.8,286047001.8,N
1568372775.6,286047002.1,N
1568372795.5,286047002.4,N
1568372815.3,286047002.1,N
1568372835.2,286047002.3,N
1568372855.9,286047002.3,N
1568372875.7,286047001.4,N
1568372895.6,286047004.0,N
1568372915.4,286047003.8,N
1568372935.2,286047004.9,N
1568372955.1,286047004.2,N
1568372956.0,286047004.2,N
1568372975.8,286047004.4,N
1568372995.7,286047005.5,Y
1568373015.5,286047000.8,P
1568373035.3,286046999.2,N
1568373055.2,286046998.0,N
1568373075.0,286046995.0,N
1568373075.9,286046995.0,N
1568373095.7,286046996.2,N
1568373115.6,286046996.2,N
1568373135.4,286046999.0,N
1568373155.3,286046996.9,N
1568373175.1,286046999.2,N
1568373176.0,286046999.2,N
1568373195.8,286046997.1,N
1568373215.7,286046997.6,N
1568373235.5,286046997.3,N
1568373255.3,286046997.6,N
1568373275.2,286046995.7,N
1568373295.0,286046995.7,N
1568373295.9,286046995.7,N
1568373315.8,286046995.5,N
1568373335.6,286046998.0,N
1568373355.4,286046997.1,N
1568373375.3,286046997.6,N
1568373395.1,286046997.4,N
1568373415.8,286046997.6,N
1568373435.7,286046997.7,N
1568373455.5,286046999.3,N
1568373475.4,286046996.6,N
1568373495.2,286046999.3,N
1568373515.0,286046997.4,N
1568373515.9,286046997.4,N
1568373535.8,286046997.7,N
1568373555.6,286046997.8,N
1568373575.5,286046995.2,Y
1568373595.3,286047000.7,P
1568373615.1,286047001.0,N
1568373635.9,286047002.8,N
1568373655.7,286046998.5,N
1568373675.5,286046998.6,N
1568373695.4,286046998.7,N
1568373715.2,286047000.8,N
1568373735.1,286046999.3,N
1568373736.0,286046999.3,N
1568373755.8,286046998.8,N
1568373775.6,286047000.8,N
1568373795.5,286047000.0,N
1568373815.3,286046999.7,N
1568373835.1,286046999.7,N
1568373855.9,286046999.9,N
1568373875.7,286046999.7,N
1568373895.6,286047000.1,N
1568373915.4,286047001.0,N
1568373935.2,286047000.4,N
1568373955.1,286047002.0,N
1568373956.0,286047002.0,N
1568373975.8,286047004.4,Y
1568373995.6,286047001.7,P
1568374015.5,286047004.0,P
1568374035.3,286047001.8,N
1568374055.2,286047002.5,N
1568374075.9,286047000.6,N
1568374095.7,286046998.4,N
1568374115.6,286046998.2,N
1568374135.4,286046999.9,N
1568374155.3,286047002.0,N
1568374175.1,286047000.1,N
1568374176.0,286047000.1,N
1568374195.8,286047000.2,N
1568374215.7,286046999.1,N
1568374235.5,286046996.5,N
1568374255.3,286046999.6,N
1568374275.2,286046999.0,N
1568374295.0,286046997.1,N
1568374295.9,286046997.1,N
1568374315.8,286046998.7,N
1568374335.6,286047001.0,N
1568374355.4,286046999.8,N
1568374375.3,286047000.2,N
1568374395.1,286047002.3,N
1568374415.9,286047002.8,N
1568374435.7,286047000.8,N
1568374455.5,286047000.7,N
1568374475.4,286046998.3,N
1568374495.2,286047000.6,N
1568374515.0,286047000.6,N
1568374516.0,286047000.6,N
1568374535.8,286046999.9,N
1568374555.6,286047001.1,N
1568374575.5,286047001.2,N
1568374595.3,286047000.8,N
1568374615.1,286047000.7,N
1568374635.9,286046998.8,N
1568374655.7,286047000.5,N
1568374675.6,286047002.4,N
1568374695.4,286046999.8,N
1568374715.2,286047002.8,N
1568374735.1,286046999.8,N
1568374736.0,286046999.8,N
1568374755.8,286046998.2,N
1568374775.6,286047000.7,N
1568374795.5,286047001.2,N
1568374815.3,286046998.1,N
1568374835.2,286047001.0,N
1568374855.9,286047001.9,N
1568374875.7,286047002.0,N
1568374895.6,286047000.4,N
1568374915.4,286047001.7,N
1568374935.2,286046999.7,N
1568374955.1,286047000.4,N
1568374956.0,286047000.4,N
1568374975.8,286047002.0,N
1568374995.7,286047004.1,Y
1568375015.5,286047004.4,P
1568375035.3,286047000.5,N
1568375055.2,286047001.8,N
1568375075.0,286047001.9,N
1568375075.9,286047001.9,N
1568375095.7,286047001.5,N
1568375115.6,286047004.0,Y
1568375135.4,286047002.8,P
1568375155.3,286047002.8,P
1568375175.1,286047001.1,N
1568375195.8,286046998.9,N
1568375215.7,286046997.3,N
1568375235.5,286046996.6,N
1568375255.4,286046998.7,N
1568375275.2,286046998.1,N
1568375295.0,286047000.2,N
1568375295.9,286047000.2,N
1568375315.8,286046998.5,N
1568375335.6,286046998.9,N
1568375355.4,286046999.2,N
1568375375.3,286046999.4,N
1568375395.1,286046998.5,N
1568375415.9,286046999.4,N
1568375435.7,286046995.4,N
1568375455.5,286046997.5,N
1568375475.4,286046995.8,N
1568375495.2,286046991.8,Y
1568375515.1,286046995.9,P
1568375516.0,286046995.9,N
1568375535.8,286046993.5,P
1568375555.6,286046995.8,N
1568375575.5,286046998.0,N
1568375595.3,286046996.8,N
1568375615.2,286046997.3,N
1568375635.9,286046999.3,N
1568375655.7,286046999.4,N
1568375675.6,286046999.4,N
1568375695.4,286046996.5,N
1568375715.2,286047001.0,N
1568375735.1,286047000.6,N
1568375736.0,286047000.6,N
1568375755.8,286046998.1,N
1568375775.7,286047000.7,N
1568375795.5,286046999.1,N
1568375815.3,286046997.2,N
1568375835.2,286046996.6,N
1568375855.0,286046999.5,N
1568375855.9,286046999.5,N
1568375875.8,286046998.7,N
1568375895.6,286046998.7,N
1568375915.4,286047000.5,N
1568375935.3,286047000.4,N
1568375955.1,286047000.9,N
1568375975.8,286047000.2,N
1568375995.7,286047002.8,N
